"Pseudo-MPEC" for P11JwuW

Created 2023 Sep 19 16:22:32 UT using Find_Orb

Click here for an explanation of pseudo-MPECs

 
 Astrometry: 
     P11JwuW* C2023 09 14hUe;25^@@SxN;+xGs(@7\?6B4+nW=\gC\/7@OWM',C2*E3#'Sn=sF51
     P11JwuW  C2023 09 14*9-6b?-D`*FB98=CojJU3792Jpm$d1QI$^_fAstrometryWFe=P1F51
     P11JwuW  C2023 09 14`i##fMGk\[(vmRF;0eLa4*MqWs6u#G5F%l3R9$redacted;4N`dvF51
     P11JwuW  C2023 09 14l17#P=dGkrP.%A0:g5`TgS2U(r@Xe+oB[2`y3Yclickj,/bherenF51
     P11JwuW 1C2023 09 15.09598 02 14 16.93 -00 48 08.4    ~9F37 21.9 VXNEOCP033
     P11JwuW 1C2023 09 15.09956 02 14 17.08 -00 48 07.3    ~9F37 21.8 VXNEOCP033
     P11JwuW 1C2023 09 15.10315 02 14 17.25 -00 48 06.0    ~9F37 22.1 VXNEOCP033
     P11JwuW KC2023 09 17.46417 02 16 10.54 -00 35 05.4    ~9HCM 21.7 RVNEOCP691
     P11JwuW KC2023 09 17.47570 02 16 11.04 -00 35 01.8    ~9HCM 21.8 RVNEOCP691
     P11JwuW KC2023 09 17.48723 02 16 11.49 -00 34 58.1    ~9HCM 21.6 RVNEOCP691
     P11JwuW  C2023 09 184)$for(JmBYZukjW05]o^%Pp?)^xMja58Or=1B0SexplanationUF52
     P11JwuW  C2023 09 18E)!5:?y*nh[x9'wSTAniYD;P/7a=m`nO:3NxivAJNZJU1WcRLReJF52
     P11JwuW  C2023 09 18GY^WvQqvyFk2NCU$d%Rx*-/ap;g'7Iwq-TG9Kx8qC%yfZ#Q:UOD9F52
     P11JwuW  C2023 09 18_2TMh[dkX5Rf]kk5^Xc;DwO7MY5iruUHC2hNA;_2,tJI,3Pe7ZdmF52
     P11JwuW KC2023 09 19lT?gcE5aa!O6#p+]7j-:vuY'`Ja4..BMu,rdm4fBJCmU`PFP7;'2H21
     P11JwuW KC2023 09 19N.rxI52WC/*s;V]bj#^nGQ#a[$ks?r+GZ$E)m1:6txc5UGQyJ6HKH21
     P11JwuW KC2023 09 19AKf#O2PH*[o?9nH`Z=QT;:DJaO$f?Lkaw2'DH)()SGw!J][g4j(OH21

Station data:
(033) Karl Schwarzschild Observatory, Tautenburg  (N50.980137 E11.711240)
   Germany.  Observer B. Stecklum. 1.34-m f/3 Schmidt + CCD.
(691) Steward Observatory, Kitt Peak - Spacewatch  (N31.962174 W111.600327)
   US/Arizona.  Observer J. V. Scotti. 0.9-m f/3 reflector + CCD.
(F51) Pan-STARRS 1, Haleakala  (N20.707234 W156.255910)  US/Hawaii.
   Observers J. Bulger, T. Lowe, A. Schultz, M. Willman. Measurers K.
   Chambers, S. Chastel, T. de Boer, L. Denneau, J. Fairlamb, H. Flewelling,
   M. Huber, C.-C. Lin, E. Magnier, Y. Ramanjooloo, R. Wainscoat, R. Weryk.
   1.8-m Ritchey-Chrétien + CCD.
(F52) Pan-STARRS 2, Haleakala  (N20.707382 W156.255910)  US/Hawaii.
   Observers J. Bulger, T. Dukes, T. Lowe, A. Schultz, M. Willman. Measurers
   K. Chambers, S. Chastel, T. de Boer, L. Denneau, J. Fairlamb, H.
   Flewelling, M. Huber, C.-C. Lin, E. Magnier, Y. Ramanjooloo, R. Wainscoat,
   R. Weryk. 1.8-m Ritchey-Chrétien + CCD.
(H21) Astronomical Research Observatory, Westfield  (N39.483054 W87.968270)
   US/Illinois.  Observer R. Holmes. Measurers S. Foglia, L. Buzzi, T.
   Linder, R. Holmes. 0.76-m f/3.0 astrograph + CCD0.81-m f/4.0 astrograph +
   CCD0.61-m f/4.5 astrograph + CCD0.40-m f/5.32 astrograph + CCD.

Orbital elements:  P11JwuW
   Perihelion 2023 Nov 30.00161 +/- 1.25 TT =  0:02:19 (JD 2460278.50161)
Epoch 2023 Sep 19.0 TT = JDT 2460206.5   Earth MOID: 0.3413   Ma: 0.0621
M 338.57835020 +/- 0.9              (J2000 ecliptic)             AutoNEOCP
n   0.29751626 +/- 0.00789          Peri.   10.70518 +/- 1.5
a   2.22226362 +/- 0.0393           Node    47.97446 +/- 0.39
e   0.4020991 +/- 0.00609           Incl.    7.79359 +/- 0.026
P   3.31                   H 21.27  G  0.15   U  9.5
q 1.32869331 +/- 0.0104    Q 3.11583394 +/- 0.0685
From 17 observations 2023 Sept. 14-19; mean residual 0".17
Residuals in arcseconds: 
230914 F51  .12-  .19-    230915 033  .10-  .26+    230918 F52  .06-  .09+    
230914 F51  .03-  .01+    230917 691  .20-  .26+    230918 F52  .06+  .06+    
230914 F51  .32+  .07+    230917 691  .27+  .02-    230919 H21  .04+  .31+    
230914 F51  .15-  .05+    230917 691  .03-  .20-    230919 H21  .07-  .17+    
230915 033  .08+  .17+    230918 F52  .23-  .34-    230919 H21  .22-  .16+    
230915 033  .16-  .12+    230918 F52  .27+  .03+    

Ephemerides (geocentric):
Date (UTC) HH   RA             Dec           delta  r     elong  mag " sig PA
---- --------  ------------   ------------  ------ ------ -----  --- --------
2023 09 19 16  02 17 47.028   -00 22 20.25  .55605 1.4829 142.0 22.0 .388 149
2023 09 19 17  02 17 48.757   -00 22 05.58  .55575 1.4827 142.0 22.0 .404 149
2023 09 19 18  02 17 50.482   -00 21 50.90  .55545 1.4825 142.1 22.0 .420 149
2023 09 19 19  02 17 52.203   -00 21 36.21  .55515 1.4824 142.1 22.0 .436 149
2023 09 19 20  02 17 53.921   -00 21 21.50  .55484 1.4822 142.1 22.0 .452 149
2023 09 19 21  02 17 55.636   -00 21 06.78  .55454 1.4821 142.2 22.0 .469 148
2023 09 19 22  02 17 57.347   -00 20 52.05  .55424 1.4819 142.2 22.0 .486 148
2023 09 19 23  02 17 59.054   -00 20 37.30  .55394 1.4817 142.2 22.0 .503 148
2023 09 20 00  02 18 00.759   -00 20 22.54  .55364 1.4816 142.2 22.0 .520 148
2023 09 20 01  02 18 02.459   -00 20 07.76  .55334 1.4814 142.3 22.0 .538 148
2023 09 20 02  02 18 04.157   -00 19 52.97  .55304 1.4812 142.3 22.0 .556 148
2023 09 20 03  02 18 05.850   -00 19 38.17  .55274 1.4811 142.3 22.0 .574 148
2023 09 20 04  02 18 07.541   -00 19 23.35  .55244 1.4809 142.4 22.0 .593 148
2023 09 20 05  02 18 09.227   -00 19 08.52  .55214 1.4808 142.4 22.0 .611 148
2023 09 20 06  02 18 10.911   -00 18 53.67  .55184 1.4806 142.4 22.0 .630 148
2023 09 20 07  02 18 12.591   -00 18 38.81  .55155 1.4804 142.5 22.0 .649 147
2023 09 20 08  02 18 14.267   -00 18 23.94  .55125 1.4803 142.5 22.0 .669 147
2023 09 20 09  02 18 15.940   -00 18 09.05  .55095 1.4801 142.5 22.0 .689 147
2023 09 20 10  02 18 17.609   -00 17 54.15  .55065 1.4799 142.5 22.0 .709 147
2023 09 20 11  02 18 19.275   -00 17 39.23  .55035 1.4798 142.6 22.0 .729 147
2023 09 20 12  02 18 20.938   -00 17 24.30  .55005 1.4796 142.6 22.0 .750 147
2023 09 20 13  02 18 22.597   -00 17 09.35  .54976 1.4795 142.6 22.0 .771 147
2023 09 20 14  02 18 24.252   -00 16 54.39  .54946 1.4793 142.7 22.0 .792 147
2023 09 20 15  02 18 25.904   -00 16 39.42  .54916 1.4791 142.7 22.0 .813 147
2023 09 20 16  02 18 27.553   -00 16 24.43  .54887 1.4790 142.7 21.9 .835 147
2023 09 20 17  02 18 29.198   -00 16 09.43  .54857 1.4788 142.8 21.9 .857 147
2023 09 20 18  02 18 30.839   -00 15 54.41  .54827 1.4787 142.8 21.9 .879 147
2023 09 20 19  02 18 32.477   -00 15 39.38  .54798 1.4785 142.8 21.9 .901 147
2023 09 20 20  02 18 34.111   -00 15 24.33  .54768 1.4783 142.9 21.9 .924 147
2023 09 20 21  02 18 35.742   -00 15 09.27  .54738 1.4782 142.9 21.9 .947 147
2023 09 20 22  02 18 37.370   -00 14 54.19  .54709 1.4780 142.9 21.9 .970 147
2023 09 20 23  02 18 38.994   -00 14 39.10  .54679 1.4778 142.9 21.9 0.99 147
2023 09 21 00  02 18 40.614   -00 14 24.00  .54650 1.4777 143.0 21.9 1.02 147
2023 09 21 01  02 18 42.231   -00 14 08.87  .54620 1.4775 143.0 21.9 1.04 147
2023 09 21 02  02 18 43.844   -00 13 53.74  .54591 1.4774 143.0 21.9 1.07 147
2023 09 21 03  02 18 45.454   -00 13 38.59  .54561 1.4772 143.1 21.9 1.09 146
2023 09 21 04  02 18 47.061   -00 13 23.42  .54532 1.4770 143.1 21.9 1.12 146
2023 09 21 05  02 18 48.663   -00 13 08.24  .54502 1.4769 143.1 21.9 1.14 146
2023 09 21 06  02 18 50.263   -00 12 53.05  .54473 1.4767 143.2 21.9 1.17 146
2023 09 21 07  02 18 51.859   -00 12 37.83  .54443 1.4766 143.2 21.9 1.19 146
2023 09 21 08  02 18 53.451   -00 12 22.61  .54414 1.4764 143.2 21.9 1.22 146
2023 09 21 09  02 18 55.039   -00 12 07.37  .54385 1.4762 143.3 21.9 1.25 146
2023 09 21 10  02 18 56.625   -00 11 52.11  .54355 1.4761 143.3 21.9 1.27 146
2023 09 21 11  02 18 58.206   -00 11 36.84  .54326 1.4759 143.3 21.9 1.30 146
2023 09 21 12  02 18 59.784   -00 11 21.55  .54297 1.4758 143.3 21.9 1.33 146
2023 09 21 13  02 19 01.359   -00 11 06.25  .54268 1.4756 143.4 21.9 1.35 146
2023 09 21 14  02 19 02.930   -00 10 50.93  .54238 1.4754 143.4 21.9 1.38 146
2023 09 21 15  02 19 04.497   -00 10 35.59  .54209 1.4753 143.4 21.9 1.41 146